User: anonymous
Location: Caltech
(34.1382°N, 118.1253°W)
Time: 21:36:45
(UTC-07:00)
Language:

SL-16 R/B - Orbit

View from above orbital plane
View from above orbital plane
View from above satellite
View from above satellite

Ground track
Ground track

The orbit data is extracted from the following two-line orbital elements,

1 28353U 04021B   14245.02814318  .00000077  00000-0  65334-4 0  8304
2 28353 071.0023 055.6568 0007114 298.8699 172.5343 14.14089341528088
Epoch (UTC): 02 September 2014 00:40:31
Eccentricity: 0.0007114
inclination: 71.0023°
perigee height: 840 km
apogee height: 850 km
right ascension of ascending node: 55.6568°
argument of perigee: 298.8699°
revolutions per day: 14.14089341
mean anomaly at epoch: 172.5343°
orbit number at epoch: 52808

The dashed part of the orbit path shows where the satellite is in the earth's shadow,  

DLR